Regional Weather Roundup
Issued by NWS Northern Indiana

Home | Current Version | Previous Version | Graphics & Text | Print | Product List | Glossary On
Versions: 1 2 3 4 5 6 7 8 9 10 11 12 13 14 15 16 17 18 19 20 21 22 23 24 25 26 27 28 29 30 31 32 33 34 35 36 37 38 39 40 41 42 43 44 45 46 47 48 49 50
000
ASUS43 KIWX 190300
RWRIWX

KIWX WEATHER ROUNDUP
NATIONAL WEATHER SERVICE NORTHERN INDIANA
1100 PM EDT SAT APR 18 2015

NOTE: "FAIR" INDICATES FEW OR NO CLOUDS BELOW 12,000 FEET WITH NO
SIGNIFICANT WEATHER AND/OR OBSTRUCTIONS TO VISIBILITY.

* THESE STATIONS ARE NOT UNDER NWS QUALITY CONTROL. THEY ALSO MAY NOT
  REPORT WEATHER SUCH AS PRECIPITATION OR FOG.

INZ001>027-190400-
NORTHERN INDIANA

CITY           SKY/WX    TMP DP  RH WIND       PRES   REMARKS
GARY*          CLOUDY    45  36  70 NE10      30.03S
SOUTH BEND     MOCLDY    63  31  30 E15G24    30.06R
GOSHEN         CLOUDY    57  28  33 E13       30.05S
ANGOLA*        CLEAR     55  19  24 E10       30.09S
FORT WAYNE     MOCLDY    56  30  37 E15       30.06S

$$
INZ028>050-190400-
CENTRAL INDIANA

CITY           SKY/WX    TMP DP  RH WIND       PRES   REMARKS
LAFAYETTE      CLOUDY    61  50  67 N6        29.95F
KOKOMO*        MOCLDY    61  43  51 E16G23    30.00S
MUNCIE*        CLOUDY    62  46  55 E15       30.01S
INDIANAPOLIS   CLOUDY    68  45  43 E9        29.94F

$$
MIZ043>046-050>051-056>058-064>065-071>073-077>080-190400-
SOUTHWEST LOWER MICHIGAN

CITY           SKY/WX    TMP DP  RH WIND       PRES   REMARKS
BATTLE CREEK   PTCLDY    58  24  27 E9        30.11R
BENTON HARBOR  MOCLDY    59  34  39 E10       30.04R
COLDWATER*     MOCLDY    57  22  25 E10       30.09S
HILLSDALE*     MOCLDY    56  20  25 E10       30.11S
HOLLAND        PTCLDY    57  29  34 E14G21    30.09R
GRAND RAPIDS   FAIR      53  28  38 E12       30.12R
KALAMAZOO      MOCLDY    59  27  29 E8        30.10R
STURGIS*       MOCLDY    57  30  35 E7        30.08R
THREE RIVERS*  FAIR      59  35  40 E6        30.09R

$$
OHZ001>008-015>018-024>025-190400-
NORTHWEST OHIO

CITY           SKY/WX    TMP DP  RH WIND       PRES   REMARKS
DEFIANCE       MOCLDY    55  27  34 NE8       30.09R
FINDLAY        MOCLDY    55  36  48 NE16      30.07F
TOLEDO EXPRESS FAIR      52  33  48 NE10      30.11S
TOLEDO METCALF PTCLDY    50  37  61 NE10      30.13S
LIMA           PTCLDY    57  35  43 E14       30.06S

$$
AND FOR LAKE MICHIGAN COASTAL AND OPEN LAKE BUOY OBSERVATIONS

STATION/POSITION TEMP    WIND        PRES    VSBY  WAVE
                 AIR SEA DIR/SP/G                  HT/PER
                 (F)     (DEG/KT/KT) (MB)    (MI)  (FT/S)
CALUMET HARBOR    45     340/ 10/ 12   N/A
MICHIGAN CITY     42     260/  3/  4   N/A
BURNS HARBOR      42     360/  2/  4 1017.6R
SAINT JOSEPH      65      40/  3/  8 1017.3R
MICHIGAN CITY     42 46   CALM  /  2   N/A           4/ 6

$$
&&


USA.gov is the U.S. government's official web portal to all federal, state and local government web resources and services.